Preview of NWS' New Version of Forecast
This preview is not operational and should not be used for support decisions.

Terminal Aerodrome Forecast (TAF)

Issued by National Weather Service (NWS)

                            
000
FTUS42 KKEY 241136
TAFEYW
TAF
KEYW 241136Z 2412/2512 14006KT P6SM FEW020=